CW0146 Weather Reports


time (UTC)temp
F
wind
direction
speed
knots
gust
knots
rain 1hr
in
rain 24hr
in
rain mn
in
humidity
%
barometer
mb
20260506234954 62 331 1.7 5.2 0.00 0.00 0.00 83 1013.0
20260506234455 62 1 0.9 3.5 0.00 0.00 0.00 83 1013.0
20260506233954 62 341 1.7 4.3 0.00 0.00 0.00 83 1013.0
20260506233455 62 339 1.7 3.5 0.00 0.00 0.00 83 1013.0
20260506232954 62 28 0.9 3.5 0.00 0.00 0.00 83 1013.0
20260506232454 62 54 1.7 3.5 0.00 0.00 0.00 83 1013.0
20260506231955 62 336 2.6 3.5 0.00 0.00 0.00 83 1013.0
20260506231454 62 14 1.7 2.6 0.00 0.00 0.00 83 1013.0
20260506230954 62 21 0.9 2.6 0.00 0.00 0.00 83 1013.0
20260506230454 62 311 0.9 2.6 0.00 0.00 0.00 83 1013.0
20260506225954 62 354 1.7 3.5 0.00 0.00 0.00 83 1013.0
20260506225455 62 357 1.7 5.2 0.00 0.00 0.00 83 1013.0
20260506224954 62 38 0.9 1.7 0.00 0.00 0.00 83 1013.0
20260506224456 62 42 1.7 3.5 0.00 0.00 0.00 83 1013.0
20260506223954 62 348 1.7 4.3 0.00 0.00 0.00 83 1013.0
20260506223455 62 356 1.7 5.2 0.00 0.00 0.00 84 1013.0
20260506222954 62 349 3.5 7.0 0.00 0.00 0.00 83 1013.0
20260506222454 62 334 1.7 4.3 0.00 0.00 0.00 83 1013.0
20260506221954 62 8 1.7 4.3 0.00 0.00 0.00 83 1013.0
20260506221454 62 67 1.7 2.6 0.00 0.00 0.00 83 1013.0
20260506220957 63 356 1.7 4.3 0.00 0.00 0.00 82 1013.0
20260506220454 63 31 1.7 5.2 0.00 0.00 0.00 82 1013.0
20260506215954 63 5 1.7 4.3 0.00 0.00 0.00 81 1013.0
20260506215454 63 40 0.9 2.6 0.00 0.00 0.00 81 1013.0
20260506214955 63 348 1.7 5.2 0.00 0.00 0.00 81 1013.0
20260506214455 64 353 1.7 5.2 0.00 0.00 0.00 81 1012.0
20260506213954 63 5 0.9 2.6 0.00 0.00 0.00 81 1013.0
20260506213454 64 11 1.7 3.5 0.00 0.00 0.00 81 1013.0
20260506212954 63 309 2.6 5.2 0.00 0.00 0.00 81 1013.0
20260506212455 63 5 1.7 4.3 0.00 0.00 0.00 81 1013.0
20260506211954 64 338 1.7 5.2 0.00 0.00 0.00 81 1013.0
20260506211454 64 333 2.6 7.0 0.00 0.00 0.00 81 1013.0
20260506210954 64 355 1.7 7.0 0.00 0.00 0.00 81 1013.0
20260506210454 64 332 1.7 5.2 0.00 0.00 0.00 81 1013.0
20260506205954 64 317 1.7 5.2 0.00 0.00 0.00 80 1013.0
20260506205456 64 320 1.7 3.5 0.00 0.00 0.00 81 1013.0
20260506204954 64 300 2.6 5.2 0.00 0.00 0.00 80 1013.0
20260506204454 64 351 0.9 2.6 0.00 0.00 0.00 80 1013.0
20260506203954 65 307 2.6 5.2 0.00 0.00 0.00 79 1013.0
20260506203454 65 326 1.7 3.5 0.00 0.00 0.00 80 1013.0
20260506202954 65 334 2.6 5.2 0.00 0.00 0.00 79 1013.0
20260506202454 66 327 1.7 5.2 0.00 0.00 0.00 79 1013.0
20260506201954 67 338 2.6 7.0 0.00 0.00 0.00 78 1013.0
20260506201454 67 352 2.6 3.5 0.00 0.00 0.00 77 1013.0
20260506200954 68 340 1.7 2.6 0.00 0.00 0.00 78 1013.0
20260506200454 68 336 1.7 4.3 0.00 0.00 0.00 78 1012.0
20260506195955 68 330 2.6 5.2 0.00 0.00 0.00 78 1012.0
20260506195455 68 324 1.7 3.5 0.00 0.00 0.00 78 1012.0
20260506194954 68 311 1.7 4.3 0.00 0.00 0.00 80 1013.0
20260506194454 69 333 3.5 6.1 0.00 0.00 0.00 79 1013.0
20260506193954 69 324 3.5 7.0 0.00 0.00 0.00 78 1012.0
20260506193455 70 329 2.6 4.3 0.00 0.00 0.00 78 1012.0
20260506192954 70 0 1.7 3.5 0.00 0.00 0.00 76 1012.0
20260506192454 71 357 1.7 3.5 0.00 0.00 0.00 77 1012.0
20260506191954 71 340 2.6 6.1 0.00 0.00 0.00 76 1012.0
20260506191455 72 356 1.7 2.6 0.00 0.00 0.00 76 1013.0
20260506190954 72 15 0.9 2.6 0.00 0.00 0.00 75 1013.0
20260506190454 73 16 0.9 4.3 0.00 0.00 0.00 74 1013.0
20260506185954 74 18 0.0 0.9 0.00 0.00 0.00 74 1013.0
20260506185455 74 356 0.9 2.6 0.00 0.00 0.00 75 1013.0
20260506184954 74 347 0.9 3.5 0.00 0.00 0.00 73 1012.0
20260506184454 74 48 1.7 2.6 0.00 0.00 0.00 74 1012.0
20260506183954 75 344 1.7 6.1 0.00 0.00 0.00 72 1012.0
20260506183454 75 291 1.7 3.5 0.00 0.00 0.00 74 1012.0
20260506182954 76 328 1.7 3.5 0.00 0.00 0.00 71 1012.0
20260506182454 75 15 1.7 4.3 0.00 0.00 0.00 73 1012.0
20260506181954 75 319 1.7 3.5 0.00 0.00 0.00 73 1012.0
20260506181454 75 333 1.7 2.6 0.00 0.00 0.00 73 1012.0
20260506180954 74 20 0.9 1.7 0.00 0.00 0.00 75 1012.0
20260506180456 74 51 0.0 0.9 0.00 0.00 0.00 74 1012.0
20260506175954 73 308 0.9 2.6 0.00 0.00 0.00 76 1011.0
20260506175454 71 72 0.9 2.6 0.00 0.00 0.00 78 1011.0
20260506174954 70 311 0.9 2.6 0.00 0.00 0.00 79 1011.0
20260506174454 70 62 2.6 3.5 0.00 0.00 0.00 77 1011.0
20260506173954 69 67 1.7 2.6 0.00 0.00 0.00 79 1011.0
20260506173454 69 51 2.6 4.3 0.00 0.00 0.00 78 1011.0
20260506172954 69 32 1.7 1.7 0.00 0.00 0.00 79 1012.0
20260506172455 69 41 1.7 4.3 0.00 0.00 0.00 80 1012.0
20260506171955 69 54 1.7 2.6 0.00 0.00 0.00 79 1011.0
20260506171456 68 24 0.9 1.7 0.00 0.00 0.00 82 1012.0
20260506170954 67 59 0.9 3.5 0.00 0.00 0.00 83 1011.0
20260506170454 66 56 1.7 3.5 0.00 0.00 0.00 84 1012.0
20260506165954 66 47 1.7 2.6 0.00 0.00 0.00 84 1012.0
20260506165455 66 55 1.7 2.6 0.00 0.00 0.00 85 1012.0
20260506164954 65 66 0.9 1.7 0.00 0.00 0.00 86 1012.0
20260506164454 65 36 0.9 2.6 0.00 0.00 0.00 87 1012.0
20260506163954 64 2 0.9 1.7 0.00 0.00 0.00 89 1012.0
20260506163454 63 80 0.9 1.7 0.00 0.00 0.00 89 1013.0
20260506162954 63 14 0.9 1.7 0.00 0.00 0.00 90 1013.0
20260506162456 62 42 0.9 1.7 0.00 0.00 0.00 91 1013.0
20260506161954 62 63 1.7 3.5 0.00 0.00 0.00 92 1013.0
20260506161453 62 70 1.7 2.6 0.00 0.00 0.00 92 1014.0
20260506160954 62 35 1.7 5.2 0.00 0.00 0.00 93 1014.0
20260506160454 62 2 2.6 6.1 0.00 0.00 0.00 93 1014.0
20260506155955 62 38 1.7 5.2 0.00 0.00 0.00 93 1014.0
20260506155455 63 346 2.6 5.2 0.00 0.00 0.00 93 1014.0
20260506154955 64 2 1.7 5.2 0.00 0.00 0.00 93 1014.0
20260506154454 64 321 2.6 5.2 0.00 0.00 0.00 92 1014.0
20260506153954 64 10 1.7 5.2 0.00 0.00 0.00 92 1014.0
20260506153454 65 344 2.6 7.8 0.00 0.00 0.00 91 1014.0
20260506152954 65 346 2.6 7.8 0.00 0.00 0.00 91 1014.0
20260506152455 66 348 1.7 7.0 0.00 0.00 0.00 90 1013.0
20260506151954 66 14 0.9 2.6 0.00 0.00 0.00 90 1013.0
20260506151454 66 47 1.7 2.6 0.00 0.00 0.00 90 1013.0
20260506150954 67 337 1.7 5.2 0.00 0.00 0.00 90 1013.0
20260506150454 67 16 0.9 2.6 0.00 0.00 0.00 89 1013.0
20260506145954 69 16 1.7 3.5 0.00 0.00 0.00 88 1013.0
20260506145456 70 351 1.7 3.5 0.00 0.00 0.00 87 1012.0
20260506144954 73 340 2.6 5.2 0.00 0.00 0.00 85 1012.0
20260506144457 77 337 2.6 7.0 0.00 0.00 0.00 81 1012.0
20260506143954 79 318 0.9 1.7 0.00 0.00 0.00 85 1011.0
20260506143456 79 210 0.9 1.7 0.00 0.00 0.00 86 1011.0
20260506142954 78 212 0.9 1.7 0.00 0.00 0.00 86 1010.0
20260506142455 78 100 0.0 0.9 0.00 0.00 0.00 87 1010.0
20260506141954 78 80 0.9 1.7 0.00 0.00 0.00 87 1010.0
20260506141454 78 173 0.9 2.6 0.00 0.00 0.00 88 1010.0
20260506140954 78 77 0.9 2.6 0.00 0.00 0.00 88 1010.0
20260506140455 77 170 0.9 2.6 0.00 0.00 0.00 89 1010.0
20260506140000 77 106 0.0 0.9 0.00 0.00 0.00 90 1010.0
20260506135455 77 88 1.7 3.5 0.00 0.00 0.00 90 1010.0
20260506134955 77 55 0.0 0.9 0.00 0.00 0.00 90 1010.0
20260506134455 77 90 1.7 3.5 0.00 0.00 0.00 90 1010.0
20260506133955 76 168 0.0 0.9 0.00 0.00 0.00 90 1010.0
20260506133454 76 189 0.9 2.6 0.00 0.00 0.00 91 1010.0
20260506132955 76 146 0.9 1.7 0.00 0.00 0.00 92 1010.0
20260506132454 76 195 0.0 1.7 0.00 0.00 0.00 92 1010.0
20260506131955 75 133 0.9 2.6 0.00 0.00 0.00 93 1010.0
20260506131454 75 148 0.9 1.7 0.00 0.00 0.00 94 1010.0
20260506130954 75 155 0.9 3.5 0.00 0.00 0.00 94 1010.0
20260506130454 75 49 0.0 1.7 0.00 0.00 0.00 94 1010.0
20260506125954 74 87 0.9 2.6 0.00 0.00 0.00 95 1010.0
20260506125454 74 99 0.9 1.7 0.00 0.00 0.00 95 1010.0
20260506124954 74 89 0.9 1.7 0.00 0.00 0.00 95 1010.0
20260506124454 74 111 0.0 1.7 0.00 0.00 0.00 95 1010.0
20260506123954 74 96 0.9 2.6 0.00 0.00 0.00 95 1010.0
20260506123454 74 75 0.0 1.7 0.00 0.00 0.00 95 1010.0
20260506122954 74 75 0.9 1.7 0.00 0.00 0.00 95 1010.0
20260506122454 74 67 0.0 0.9 0.00 0.00 0.00 95 1010.0
20260506121954 74 72 0.9 1.7 0.00 0.00 0.00 94 1010.0
20260506121454 74 109 0.9 1.7 0.00 0.00 0.00 94 1010.0
20260506120955 74 109 0.9 1.7 0.00 0.00 0.00 94 1010.0
20260506120454 74 68 0.0 1.7 0.00 0.00 0.00 94 1010.0
20260506115954 75 73 0.0 0.9 0.00 0.00 0.00 94 1009.0
20260506115455 75 40 0.0 0.9 0.00 0.00 0.00 94 1009.0
20260506114954 75 165 0.0 0.9 0.00 0.00 0.00 94 1009.0
20260506114456 75 138 0.9 1.7 0.00 0.00 0.00 94 1009.0
20260506113954 75 86 0.0 1.7 0.00 0.00 0.00 94 1009.0
20260506113454 75 119 0.0 0.9 0.00 0.00 0.00 94 1009.0
20260506112955 75 162 0.0 0.0 0.00 0.00 0.00 94 1009.0
20260506112454 75 171 0.9 1.7 0.00 0.00 0.00 94 1009.0
20260506111954 75 337 0.0 0.0 0.00 0.00 0.00 94 1009.0
20260506111454 75 168 0.0 0.9 0.00 0.00 0.00 94 1009.0
20260506110954 75 200 0.0 1.7 0.00 0.00 0.00 93 1009.0
20260506110454 75 194 0.0 1.7 0.00 0.00 0.00 93 1009.0
20260506105954 75 75 0.0 1.7 0.00 0.00 0.00 93 1009.0
20260506105455 75 98 0.0 0.9 0.00 0.00 0.00 93 1009.0
20260506104954 75 187 1.7 2.6 0.00 0.00 0.00 93 1009.0
20260506104454 75 202 0.9 1.7 0.00 0.00 0.00 93 1009.0
20260506103954 75 189 1.7 2.6 0.00 0.00 0.00 93 1009.0
20260506103454 75 198 0.0 1.7 0.00 0.00 0.00 93 1009.0
20260506102954 75 189 0.9 1.7 0.00 0.00 0.00 92 1009.0
20260506102454 75 191 0.9 1.7 0.00 0.00 0.00 92 1009.0
20260506101954 75 182 1.7 1.7 0.00 0.00 0.00 92 1009.0
20260506101454 75 160 1.7 1.7 0.00 0.00 0.00 92 1009.0
20260506100954 75 174 0.9 2.6 0.00 0.00 0.00 92 1009.0
20260506100454 75 192 2.6 3.5 0.00 0.00 0.00 92 1009.0
20260506095954 75 158 1.7 1.7 0.00 0.00 0.00 92 1009.0
20260506095454 75 198 1.7 3.5 0.00 0.00 0.00 92 1009.0
20260506094955 75 189 0.9 1.7 0.00 0.00 0.00 92 1009.0
20260506094454 75 179 1.7 3.5 0.00 0.00 0.00 92 1009.0
20260506093954 75 162 1.7 3.5 0.00 0.00 0.00 92 1009.0
20260506093454 75 134 0.9 2.6 0.00 0.00 0.00 92 1009.0
20260506092954 75 148 1.7 4.3 0.00 0.00 0.00 92 1009.0
20260506092454 75 203 2.6 5.2 0.00 0.00 0.00 92 1009.0
20260506091956 75 151 1.7 3.5 0.00 0.00 0.00 92 1009.0
20260506091454 75 177 1.7 3.5 0.00 0.00 0.00 92 1008.0
20260506090955 75 180 1.7 3.5 0.00 0.00 0.00 92 1008.0
20260506090454 75 148 0.9 2.6 0.00 0.00 0.00 92 1008.0
20260506085954 75 174 1.7 3.5 0.00 0.00 0.00 92 1008.0
20260506085459 75 194 0.9 2.6 0.00 0.00 0.00 92 1008.0
20260506084954 75 161 1.7 1.7 0.00 0.00 0.00 92 1008.0
20260506084454 75 173 2.6 3.5 0.00 0.00 0.00 92 1008.0
20260506083955 75 194 1.7 3.5 0.00 0.00 0.00 92 1008.0
20260506083455 75 134 1.7 2.6 0.00 0.00 0.00 91 1008.0
20260506082954 76 174 2.6 5.2 0.00 0.00 0.00 91 1008.0
20260506082454 75 181 4.3 7.8 0.00 0.00 0.00 91 1008.0
20260506081955 76 178 1.7 4.3 0.00 0.00 0.00 91 1008.0
20260506081454 76 170 2.6 5.2 0.00 0.00 0.00 91 1008.0
20260506080954 76 200 2.6 5.2 0.00 0.00 0.00 91 1008.0
20260506080454 76 159 2.6 4.3 0.00 0.00 0.00 91 1008.0
20260506073457 76 185 1.7 2.6 0.00 0.00 0.00 91 1008.0
20260506072954 76 174 1.7 3.5 0.00 0.00 0.00 91 1008.0
20260506072454 76 177 2.6 5.2 0.00 0.00 0.00 91 1008.0
20260506071954 76 182 1.7 3.5 0.00 0.00 0.00 91 1009.0
20260506071454 76 170 3.5 7.0 0.00 0.00 0.00 91 1009.0
20260506070954 76 173 2.6 7.0 0.00 0.00 0.00 91 1009.0
20260506070454 76 168 4.3 7.8 0.00 0.00 0.00 91 1009.0
20260506062454 76 147 2.6 4.3 0.00 0.00 0.00 91 1009.0
20260506061954 76 106 1.7 3.5 0.00 0.00 0.00 91 1009.0
20260506061454 76 185 1.7 3.5 0.00 0.00 0.00 91 1008.0
20260506060954 76 198 1.7 4.3 0.00 0.00 0.00 91 1008.0
20260506060453 76 191 1.7 5.2 0.00 0.00 0.00 92 1008.0
20260506050955 76 171 1.7 4.3 0.00 0.00 0.00 91 1009.0
20260506050453 76 114 1.7 3.5 0.00 0.00 0.00 91 1009.0
20260506044954 76 176 0.9 2.6 0.00 0.00 0.00 91 1009.0
20260506044454 76 130 0.9 3.5 0.00 0.00 0.00 91 1009.0
20260506043954 76 104 0.9 2.6 0.00 0.00 0.00 91 1009.0
20260506043454 76 156 0.9 1.7 0.00 0.00 0.00 90 1009.0
20260506042954 76 143 1.7 2.6 0.00 0.00 0.00 90 1009.0
20260506042454 76 124 2.6 5.2 0.00 0.00 0.00 90 1009.0
20260506041954 76 120 1.7 2.6 0.00 0.00 0.00 90 1009.0
20260506041454 76 147 0.9 1.7 0.00 0.00 0.00 90 1009.0
20260506040954 76 146 1.7 3.5 0.00 0.00 0.00 89 1008.0
20260506040454 76 191 1.7 4.3 0.00 0.00 0.00 89 1008.0
20260506035954 76 197 0.9 3.5 0.00 0.00 0.00 89 1008.0
20260506035454 76 135 1.7 3.5 0.00 0.00 0.00 89 1008.0
20260506034954 77 124 0.9 1.7 0.00 0.00 0.00 89 1008.0
20260506034454 77 173 1.7 2.6 0.00 0.00 0.00 89 1008.0
20260506033955 77 150 0.9 3.5 0.00 0.00 0.00 88 1008.0
20260506033454 77 102 2.6 4.3 0.00 0.00 0.00 88 1008.0
20260506032954 77 176 0.9 1.7 0.00 0.00 0.00 88 1008.0
20260506032454 77 144 0.0 1.7 0.00 0.00 0.00 88 1008.0
20260506031954 77 111 0.9 1.7 0.00 0.00 0.00 88 1008.0
20260506031454 77 176 0.9 1.7 0.00 0.00 0.00 87 1008.0
20260506030954 77 112 0.9 3.5 0.00 0.00 0.00 87 1008.0
20260506030454 78 83 1.7 2.6 0.00 0.00 0.00 87 1008.0
20260506025954 78 133 1.7 3.5 0.00 0.00 0.00 87 1008.0
20260506025454 78 153 0.9 1.7 0.00 0.00 0.00 86 1008.0
20260506024954 78 110 1.7 3.5 0.00 0.00 0.00 86 1008.0
20260506024454 78 171 0.9 1.7 0.00 0.00 0.00 85 1008.0
20260506023954 78 139 0.9 1.7 0.00 0.00 0.00 85 1007.0
20260506023454 79 136 1.7 3.5 0.00 0.00 0.00 84 1007.0
20260506022955 79 102 1.7 3.5 0.00 0.00 0.00 83 1007.0
20260506022454 79 183 0.9 1.7 0.00 0.00 0.00 83 1007.0
20260506021954 79 123 0.9 2.6 0.00 0.00 0.00 82 1007.0
20260506021454 79 134 1.7 3.5 0.00 0.00 0.00 82 1007.0
20260506020955 79 142 0.9 2.6 0.00 0.00 0.00 82 1007.0
20260506020456 79 130 0.9 1.7 0.00 0.00 0.00 82 1007.0
20260506015954 79 95 1.7 5.2 0.00 0.00 0.00 81 1007.0
20260506015454 80 77 0.9 2.6 0.00 0.00 0.00 81 1007.0
20260506014954 80 107 0.9 1.7 0.00 0.00 0.00 81 1007.0
20260506014454 80 89 0.9 1.7 0.00 0.00 0.00 81 1007.0
20260506013954 80 105 0.9 3.5 0.00 0.00 0.00 81 1007.0
20260506013454 80 156 1.7 3.5 0.00 0.00 0.00 81 1007.0
20260506012954 80 98 0.0 1.7 0.00 0.00 0.00 80 1007.0
20260506012454 80 72 0.9 2.6 0.00 0.00 0.00 80 1007.0
20260506011956 80 120 0.9 2.6 0.00 0.00 0.00 79 1007.0
20260506011455 81 101 1.7 3.5 0.00 0.00 0.00 79 1007.0
20260506010954 81 116 0.9 1.7 0.00 0.00 0.00 78 1007.0
20260506010454 81 99 0.9 2.6 0.00 0.00 0.00 78 1007.0
20260506005954 82 116 0.9 0.9 0.00 0.00 0.00 77 1007.0
20260506005454 82 147 0.9 2.6 0.00 0.00 0.00 77 1007.0
20260506004954 82 183 0.9 2.6 0.00 0.00 0.00 76 1007.0
20260506004454 82 177 0.9 2.6 0.00 0.00 0.00 76 1007.0
20260506003954 82 174 1.7 3.5 0.00 0.00 0.00 76 1007.0
20260506003454 82 106 0.9 1.7 0.00 0.00 0.00 76 1006.0
20260506002954 82 97 1.7 4.3 0.00 0.00 0.00 76 1007.0
20260506002454 82 163 0.9 3.5 0.00 0.00 0.00 75 1007.0
20260506001954 82 122 1.7 3.5 0.00 0.00 0.00 75 1007.0
20260506001454 82 201 1.7 3.5 0.00 0.00 0.00 74 1007.0
20260506000954 82 129 1.7 3.5 0.00 0.00 0.00 74 1007.0
20260506000455 82 130 0.9 1.7 0.00 0.00 0.00 74 1007.0
20260505235957 83 141 1.7 3.5 0.00 0.00 0.00 74 1006.0
20260505235454 83 170 1.7 3.5 0.00 0.00 0.00 74 1006.0